GFSWCAN_250_rhum_057.txt.gz
RH
9 7 6 5 5 5 5 5 4 4 4 4 4 4 4 5 6 6 6 7 7 6 5 5 6 7 8 8 8 12 13 9 9 9 15 11 11 15 12 18 24 40 56 53 42 56 63 88 100 100 100 100 94 79
6 5 5 4 3 3 2 2 2 2 2 2 2 2 2 3 3 3 3 4 4 3 3 3 4 5 5 6 8 9 9 8 8 12 19 18 14 13 14 13 17 21 33 41 29 44 64 73 78 91 100 100 95 83
3 3 3 2 2 2 2 2 2 2 2 2 2 2 2 2 2 3 3 3 3 3 3 3 3 3 4 5 6 7 6 7 11 18 16 16 13 17 15 23 20 20 22 23 22 38 50 62 81 80 83 86 88 82
3 3 3 3 3 3 3 2 2 2 2 2 2 2 2 2 2 3 3 3 3 3 3 3 3 3 4 5 6 6 8 9 14 17 16 16 17 14 15 20 18 18 18 22 23 29 38 51 57 64 69 66 66 71
3 3 3 3 3 3 2 2 2 2 2 2 2 2 2 2 3 2 3 3 3 3 3 3 3 3 4 5 6 8 10 12 15 16 23 17 16 15 12 12 10 19 28 24 30 53 44 49 50 51 58 64 77 70
3 4 4 4 4 3 3 2 2 2 2 2 2 2 2 2 2 2 2 3 3 3 3 3 3 3 4 6 8 9 11 13 13 15 26 13 12 14 15 13 22 31 41 34 30 28 27 36 43 54 67 100 79 75
4 4 5 5 4 4 3 2 2 2 2 2 2 2 2 2 3 3 3 3 3 3 3 4 4 5 7 9 10 10 12 12 17 20 15 15 18 18 16 24 16 18 22 30 32 31 36 41 58 65 68 98 100 100
5 6 6 5 5 4 3 3 3 3 3 3 3 2 2 3 3 3 4 4 4 4 5 5 6 8 8 8 10 12 14 14 16 18 16 13 18 18 12 19 23 30 33 33 38 42 48 49 56 85 99 98 98 100
7 7 7 6 5 4 4 4 4 4 4 3 3 3 3 3 3 3 3 3 4 4 5 6 7 8 8 10 10 12 13 14 18 21 23 15 9 14 14 19 24 32 31 39 42 45 56 82 78 76 92 92 100 100
8 8 7 7 6 6 5 5 5 4 4 4 5 4 4 5 5 5 6 6 6 7 8 8 9 9 11 12 12 13 15 20 22 23 20 17 12 19 17 22 26 30 30 41 55 81 100 100 100 100 100 100 100 100
9 8 7 6 6 6 6 6 6 6 6 7 7 8 8 8 8 8 8 9 9 9 10 11 12 13 15 15 16 15 14 16 23 32 12 13 13 14 21 25 30 26 34 51 94 100 100 100 100 100 100 100 100 100
12 11 11 9 9 8 8 9 9 10 11 11 10 10 10 11 12 13 14 16 18 19 18 18 18 20 24 27 22 20 22 22 20 16 16 12 13 19 18 29 31 34 46 97 100 100 100 100 100 100 100 100 100 100
12 11 11 12 12 14 16 17 19 18 18 20 22 25 23 22 18 13 14 14 12 14 18 22 24 21 24 24 25 25 21 17 18 14 14 15 18 24 29 34 42 46 68 88 84 92 100 100 100 100 100 100 100 100
13 14 13 14 14 13 14 15 14 14 16 14 15 14 13 13 14 14 11 14 14 16 15 16 18 15 16 15 14 17 18 15 14 14 16 19 23 31 42 45 38 44 55 75 91 90 91 98 100 100 100 100 100 100
9 10 11 14 16 18 17 15 14 14 12 12 12 9 10 10 10 8 7 9 10 13 13 12 13 16 16 15 14 13 17 15 16 17 20 22 22 29 38 50 51 50 62 76 78 80 98 100 100 100 100 100 100 100
11 12 13 13 15 16 17 19 19 20 18 15 14 12 11 10 10 9 8 10 11 11 12 14 16 16 18 16 15 15 21 18 19 22 22 24 27 32 43 55 69 81 78 80 88 94 99 100 99 98 92 95 98 98
11 13 14 14 16 16 17 17 16 14 12 13 12 12 13 12 12 13 12 13 12 15 20 18 17 21 25 20 20 21 27 24 26 23 21 27 33 38 50 66 73 71 74 77 84 87 94 97 100 98 88 80 78 79
15 16 21 28 27 22 18 14 14 19 21 21 21 20 21 21 17 15 13 15 16 18 24 27 32 39 45 44 42 36 36 45 42 40 39 36 30 30 36 49 61 68 67 66 71 78 83 80 84 86 85 85 82 75
40 40 42 39 38 30 23 20 21 30 29 30 31 29 31 32 34 39 42 48 48 35 34 38 39 47 46 40 34 29 28 27 30 34 39 42 40 35 39 42 46 49 51 51 53 58 59 58 54 50 47 46 47 47
60 61 56 46 38 37 46 56 55 55 55 56 53 44 37 35 33 32 31 30 31 34 43 46 44 42 44 40 39 39 35 30 28 28 28 28 29 30 31 32 35 37 37 36 36 35 34 33 32 31 31 31 31 31
59 66 69 64 62 55 43 47 54 57 65 62 68 76 73 74 71 69 67 64 69 72 64 52 46 38 34 33 30 27 25 24 22 25 25 24 22 22 21 23 24 23 23 24 24 24 23 21 21 22 23 23 22 22
76 72 71 82 88 76 76 78 78 82 79 83 88 95 95 94 94 96 98 98 94 96 92 88 88 88 91 90 86 81 78 74 68 59 50 40 35 33 31 29 27 23 20 18 16 15 14 14 14 15 17 20 22 25
88 90 92 88 98 98 95 86 78 79 86 86 86 88 91 91 92 91 94 96 100 100 100 100 100 100 99 98 96 93 87 80 74 66 57 47 37 28 22 17 15 14 14 15 16 16 18 20 21 22 24 25 24 21
83 92 88 88 94 95 91 96 99 99 99 98 98 99 98 99 94 96 100 100 100 99 99 99 97 97 93 89 84 73 64 56 45 34 26 21 18 17 19 22 24 24 23 22 21 20 17 16 15 13 12 12 10 9
85 88 88 87 96 99 99 100 100 100 100 100 100 100 96 87 85 82 80 80 79 76 72 68 65 67 62 53 46 38 29 22 18 16 15 13 12 11 10 9 8 7 7 6 6 6 5 5 6 5 5 5 5 4
97 96 96 100 100 100 100 100 100 98 94 90 89 87 82 78 77 81 78 79 77 75 70 62 52 39 29 21 14 10 8 8 8 7 6 6 5 5 5 4 4 4 4 4 4 4 4 3 3 4 3 4 3 3
93 93 97 100 100 98 93 92 93 93 94 93 85 74 74 74 70 66 60 56 54 47 39 32 22 14 9 8 8 8 6 5 5 5 4 4 4 4 4 4 4 3 3 3 3 3 3 3 3 3 3 3 3 3
87 87 87 83 83 84 86 90 93 92 87 82 73 71 68 62 59 61 57 49 42 35 25 16 11 8 8 6 5 5 4 4 4 4 4 3 3 3 3 3 3 3 3 3 3 3 3 3 3 3 3 2 2 2
97 92 84 78 80 82 85 87 88 88 85 73 69 63 61 59 51 48 46 36 26 18 12 8 7 6 5 4 4 4 3 3 3 3 3 3 4 3 3 3 3 3 3 2 2 2 2 2 2 2 2 2 2 2
80 83 81 83 83 84 86 87 86 82 68 62 59 56 51 44 43 34 27 19 13 8 6 5 4 4 4 3 3 3 3 3 4 3 3 3 2 2 2 2 2 2 2 2 2 2 2 2 2 2 2 2 2 2
88 87 82 79 79 83 86 77 67 59 57 55 46 35 32 29 24 19 14 9 6 5 5 4 4 3 3 3 3 4 3 3 2 2 2 2 2 2 2 2 2 2 2 2 2 2 2 2 2 2 1 1 1 1
68 69 71 68 63 60 54 57 55 48 41 32 26 24 20 16 13 8 7 6 5 4 4 3 3 3 4 4 3 3 2 2 2 2 2 2 2 2 2 2 2 2 2 2 2 2 1 1 1 1 1 1 1 1
59 54 48 48 47 45 45 42 36 28 24 21 18 14 10 8 6 6 5 4 3 3 3 4 4 4 4 3 3 2 2 2 2 2 2 2 2 2 2 2 2 1 1 1 1 1 1 1 1 1 1 1 1 1

GFSWCAN_250_rhum_063.txt.gz
RH
9 10 11 11 11 12 14 15 15 15 15 16 14 13 12 12 10 8 9 12 13 18 22 24 24 26 27 20 31 58 24 14 18 20 21 21 18 16 16 18 14 14 14 21 24 23 28 41 46 57 71 79 95 98
8 8 8 8 7 7 7 8 9 10 12 14 15 15 15 16 15 13 16 17 16 18 26 23 23 25 29 32 46 27 26 28 20 18 25 29 26 16 16 15 19 15 14 14 16 22 29 36 34 39 35 37 50 80
5 4 4 4 4 4 4 4 5 6 6 8 8 9 11 13 13 13 12 14 13 11 16 20 34 44 40 46 37 27 30 25 21 17 17 20 22 24 17 19 18 17 15 13 13 18 26 36 32 31 25 25 34 48
3 3 3 3 2 2 2 2 2 3 3 3 4 5 6 6 6 7 8 13 10 10 10 18 14 16 25 32 26 23 32 23 18 15 13 12 14 16 16 16 19 19 15 14 14 17 28 32 26 45 100 28 35 35
3 3 3 3 3 3 3 3 3 3 3 3 3 3 3 3 3 3 4 6 6 7 8 12 9 12 14 19 30 26 22 18 15 12 10 10 10 11 13 13 16 18 17 16 21 20 26 62 42 38 37 29 44 50
5 5 5 5 4 4 4 3 3 3 3 4 4 4 4 4 4 4 4 5 4 4 5 8 10 8 9 12 16 16 17 16 12 9 6 9 11 11 13 15 15 15 13 17 26 20 31 49 68 42 44 37 54 36
6 6 5 5 4 4 3 3 3 2 2 3 3 3 4 4 5 6 7 5 5 6 6 6 6 6 4 6 7 8 9 9 8 9 10 9 10 11 14 15 17 16 14 20 30 28 45 37 68 57 64 58 56 31
6 6 5 4 4 3 3 3 2 2 2 2 2 3 3 3 3 4 4 5 4 4 5 4 5 6 6 6 6 6 6 6 6 7 7 7 8 9 11 14 16 17 16 20 27 26 27 35 100 76 71 63 70 43
7 6 5 4 4 3 3 3 2 2 2 2 2 2 3 3 4 4 4 4 5 5 5 6 7 7 8 6 4 4 4 4 4 5 5 6 7 8 11 15 15 18 20 24 29 34 34 32 78 64 49 42 29 32
7 7 5 4 4 4 3 3 3 3 2 3 3 3 3 3 4 4 4 4 4 3 5 5 6 5 5 4 4 5 5 4 4 6 6 7 8 10 11 12 13 14 19 23 27 34 38 42 42 33 34 28 27 36
8 7 6 5 4 4 4 3 3 3 3 3 3 3 4 4 4 4 4 5 5 5 5 5 5 5 5 5 5 4 5 5 6 7 7 9 10 11 13 17 21 26 26 26 28 31 34 38 35 28 32 29 35 30
10 8 8 7 7 6 5 4 4 4 4 3 4 4 4 4 4 5 5 5 4 4 5 5 5 6 6 6 6 6 7 7 7 9 11 13 14 14 17 20 22 24 28 36 46 44 38 37 34 36 38 33 29 27
14 11 10 9 8 8 7 7 6 6 5 4 4 4 4 4 5 4 5 5 5 6 6 6 6 7 7 8 8 9 10 10 10 12 13 14 16 18 19 22 28 36 46 56 61 48 41 35 29 29 28 29 27 26
19 16 15 11 9 10 10 10 10 9 8 8 7 7 7 7 7 7 7 7 7 8 9 11 11 12 12 12 12 12 13 15 17 19 21 24 30 28 23 27 35 48 48 49 55 54 36 26 18 19 20 22 21 23
16 14 13 14 13 12 12 13 12 12 10 11 12 12 12 10 10 10 11 11 12 12 14 15 17 20 21 23 22 25 24 30 32 34 37 37 38 37 30 30 31 25 23 28 32 30 26 25 24 24 23 22 21 23
14 13 13 12 11 10 10 10 10 10 9 10 10 11 13 14 14 14 16 20 26 26 26 26 28 32 37 33 30 30 34 34 34 33 32 28 32 39 46 47 47 42 26 22 22 20 19 21 21 20 22 25 26 30
14 11 10 10 11 11 10 10 10 10 10 10 9 9 11 14 17 16 16 23 23 28 33 35 38 37 36 38 36 44 41 38 38 37 41 41 38 33 25 24 27 40 30 19 16 16 16 18 20 19 19 20 21 25
16 16 16 15 16 14 12 12 12 13 13 12 11 11 11 12 16 20 24 27 31 36 41 45 42 47 38 33 45 45 44 44 39 42 43 42 45 43 35 31 28 24 22 17 15 12 12 12 13 14 14 15 18 20
27 26 24 24 25 23 22 24 21 22 20 17 18 18 18 18 20 22 24 28 37 42 55 58 56 58 54 55 55 55 54 48 48 50 51 49 45 40 37 34 31 30 29 27 25 22 22 22 21 19 18 18 18 18
36 35 30 30 31 29 37 36 31 45 47 40 34 32 31 24 22 32 46 56 82 81 73 64 63 58 60 76 76 73 73 70 69 66 62 61 61 59 52 44 37 35 32 30 27 24 22 19 17 17 18 17 16 15
54 54 54 52 51 51 57 44 45 46 51 53 39 38 49 52 57 63 64 68 68 69 69 72 71 68 64 62 60 63 75 78 81 79 76 72 65 59 49 39 30 24 19 18 14 15 15 14 14 14 14 14 14 13
68 68 69 65 78 68 83 69 57 60 66 65 58 56 66 67 66 71 73 76 79 87 90 89 84 77 76 77 77 69 63 60 57 50 40 33 30 28 26 27 28 28 26 21 18 16 15 15 15 16 15 15 15 15
74 81 81 84 74 64 66 66 68 61 65 75 86 87 88 86 82 88 86 85 88 88 88 88 87 89 89 86 84 78 71 64 53 42 34 28 23 20 16 15 15 15 15 15 15 16 16 17 18 18 19 20 20 20
74 63 64 72 69 72 79 78 78 87 90 92 93 93 91 94 100 100 98 100 99 94 94 97 100 100 96 90 81 69 54 42 34 26 19 14 13 12 10 8 7 7 6 6 5 5 5 6 5 5 5 5 5 5
90 83 78 84 89 90 88 86 86 84 85 83 82 86 93 96 97 94 94 91 94 90 91 88 83 79 76 64 51 37 25 16 10 10 11 9 7 6 5 5 4 4 4 4 4 4 4 4 4 4 4 4 3 3
92 84 81 82 84 84 82 82 80 81 84 88 91 89 86 87 90 92 88 88 84 83 76 71 67 59 56 41 24 14 9 9 8 6 5 5 4 4 4 3 3 3 3 3 3 3 3 3 3 3 3 3 3 3
82 83 82 81 83 79 82 89 92 94 98 99 99 95 90 90 86 84 80 74 71 66 66 57 48 35 21 14 10 8 8 6 5 4 3 3 3 3 3 3 3 3 3 3 3 3 3 3 3 2 2 2 2 2
78 84 85 86 91 98 98 100 100 100 99 99 98 98 91 84 78 70 62 61 60 53 46 37 23 15 12 8 6 6 5 4 4 3 3 3 3 3 4 3 3 3 2 2 2 2 2 2 2 2 2 2 2 2
81 79 81 86 92 96 98 96 94 91 88 86 86 82 79 70 60 58 58 53 43 38 26 16 12 10 7 6 5 4 4 3 3 4 4 4 4 3 2 2 2 2 2 2 2 2 2 2 2 2 2 2 2 2
85 84 88 94 96 95 93 92 87 88 88 88 80 69 60 56 57 52 45 36 27 18 13 10 8 6 5 4 4 3 4 4 4 4 3 2 2 2 2 2 2 2 2 2 2 2 2 2 2 2 1 1 1 1
86 85 87 86 84 89 93 87 82 79 70 60 57 54 52 48 42 37 29 22 15 10 8 6 6 5 4 3 4 4 4 4 3 3 2 2 2 2 2 2 2 2 2 2 2 2 1 1 1 1 1 1 1 1
88 85 78 78 83 84 71 62 59 57 53 50 45 42 36 32 28 21 16 11 8 7 6 5 4 4 4 4 4 4 4 3 3 2 2 2 2 2 2 2 2 2 2 2 1 1 1 1 1 1 1 1 1 1
75 73 73 68 58 52 54 53 50 45 41 41 37 30 25 21 17 11 8 7 6 5 4 4 4 4 4 4 4 3 3 2 2 2 2 2 2 2 2 2 2 2 2 1 1 1 1 1 1 1 1 1 1 1

GFSWCAN_250_rhum_069.txt.gz
RH
8 9 9 9 10 10 9 9 10 10 10 9 9 9 9 9 9 9 10 10 9 8 8 10 12 13 14 17 20 20 18 17 20 24 27 30 31 32 33 34 34 32 32 32 33 37 46 45 43 50 65 75 71 69
10 9 8 8 10 11 13 14 14 14 14 13 12 12 11 10 10 11 12 12 10 9 10 11 12 14 16 16 17 18 18 18 21 25 29 33 32 30 29 28 27 29 30 31 32 34 33 34 30 29 34 37 37 36
10 12 12 10 9 9 9 8 8 8 9 12 12 12 14 14 13 13 12 12 14 12 11 12 13 14 16 17 17 18 18 17 20 22 25 28 30 29 28 30 30 29 26 26 28 28 26 26 23 21 23 25 28 29
11 10 8 6 6 5 5 5 5 5 6 8 10 10 12 15 19 18 14 15 15 15 14 15 15 16 16 16 17 19 20 17 17 20 22 24 26 26 23 21 21 19 19 21 22 22 23 22 16 18 18 19 20 23
6 5 4 3 3 4 4 4 3 3 4 5 7 8 10 11 14 23 17 14 16 14 16 18 21 19 18 17 18 19 18 16 15 18 20 21 21 21 23 22 25 25 26 24 24 27 26 22 14 13 12 11 11 14
4 4 4 4 5 5 4 4 4 4 3 3 4 5 7 9 9 11 19 19 17 14 16 19 19 18 19 19 20 21 21 21 18 19 25 25 25 23 24 24 35 33 32 28 26 28 29 27 19 14 11 12 13 13
5 5 5 6 5 4 4 4 5 5 5 4 4 4 5 5 7 9 13 28 26 24 22 20 22 23 25 24 27 26 24 22 20 16 17 22 26 23 32 37 50 43 37 34 35 45 33 19 16 15 19 19 18 20
6 6 5 4 4 4 4 4 4 4 5 6 5 5 4 5 5 4 6 10 16 19 25 29 32 27 27 32 40 36 35 27 24 20 21 24 36 32 34 52 55 54 48 44 40 31 24 13 16 19 19 21 19 19
6 5 4 4 4 3 3 3 3 3 4 5 6 6 6 5 5 5 5 5 6 9 14 27 38 37 30 28 31 38 36 34 32 26 23 18 19 16 26 34 42 50 52 44 33 16 15 17 17 16 17 17 16 17
5 4 4 4 3 3 3 3 3 3 3 4 4 5 7 7 6 8 7 7 7 7 7 9 14 22 35 50 53 49 52 46 45 43 28 18 13 14 16 21 23 21 20 19 17 15 14 13 13 14 15 16 15 14
7 5 4 4 4 3 3 4 3 3 3 4 4 4 5 6 8 9 9 9 10 9 8 8 8 8 11 16 20 26 28 33 34 36 28 23 28 22 15 13 11 11 11 11 10 11 11 12 13 13 13 14 15 15
9 7 5 4 4 4 4 4 4 4 3 3 4 4 5 6 6 7 8 10 10 11 14 16 18 17 12 13 12 11 12 11 10 10 9 10 9 7 7 7 7 7 7 8 9 9 10 10 12 16 19 18 18 17
11 9 6 6 5 5 5 5 5 4 4 4 4 4 4 4 5 5 6 7 9 10 12 14 14 13 12 11 12 11 10 10 10 8 8 7 7 7 6 6 6 6 6 8 10 9 10 13 15 16 18 19 19 20
14 12 9 7 6 6 5 5 5 5 5 5 5 5 6 6 6 7 7 8 9 9 10 10 11 12 12 13 13 12 12 11 10 10 10 10 9 9 8 8 8 9 9 9 10 13 16 17 18 20 21 20 21 23
20 16 14 12 10 7 6 6 6 5 5 6 6 6 6 6 7 8 9 9 10 10 10 11 11 12 12 12 12 12 12 12 13 13 13 14 14 16 16 15 13 13 15 16 16 17 18 19 18 18 18 19 20 22
21 19 17 16 15 13 11 9 9 8 7 6 6 6 7 7 7 8 8 9 10 11 12 13 13 15 16 17 17 18 18 18 19 19 20 19 19 17 17 18 18 19 18 21 24 24 21 21 22 22 21 21 22 22
13 14 18 18 19 18 16 15 14 13 12 11 11 11 12 11 11 13 14 13 14 19 19 25 28 25 31 35 26 25 25 30 30 31 35 38 37 37 39 43 47 53 63 61 54 50 50 53 53 51 49 45 43 43
11 12 13 16 19 20 24 25 27 27 26 24 23 23 22 21 23 25 27 29 28 30 38 47 50 62 69 70 69 59 54 49 51 53 54 60 63 57 53 48 42 37 35 34 31 29 26 24 25 23 22 21 20 18
16 14 14 13 15 18 26 37 34 32 30 32 32 37 45 55 53 45 45 51 55 64 68 72 74 76 75 73 72 71 77 80 76 77 76 72 69 67 63 56 52 46 43 38 34 28 24 22 22 21 20 18 17 16
21 20 19 18 18 17 23 26 35 36 40 43 50 48 43 48 62 84 96 99 100 99 91 86 82 81 88 96 94 92 87 81 76 69 67 66 59 54 46 40 35 32 30 27 24 22 21 20 18 17 16 15 14 13
38 43 33 25 28 29 30 34 37 44 51 49 47 54 62 69 88 96 98 100 97 91 93 99 100 100 97 93 85 80 76 74 75 72 66 58 50 43 40 40 38 37 34 31 30 27 26 24 22 21 19 18 16 15
52 61 62 58 46 56 58 56 66 66 60 56 68 73 79 82 82 82 88 89 89 87 83 83 83 82 82 82 81 78 75 69 61 50 40 30 27 25 22 23 23 20 18 16 14 12 11 10 9 9 8 8 7 6
56 64 69 57 51 55 50 57 52 61 69 72 75 77 80 81 84 84 86 84 87 91 92 94 93 89 86 77 69 62 53 43 35 30 23 15 16 17 15 12 10 8 8 7 6 6 6 6 5 5 5 5 4 4
52 63 69 59 59 70 72 72 71 76 83 81 80 80 80 85 87 91 89 91 95 86 83 79 74 70 63 58 57 49 43 36 24 16 16 14 11 8 7 6 6 5 5 4 4 4 4 4 4 4 4 4 3 3
58 49 65 64 65 67 73 82 85 84 82 86 87 86 90 90 91 88 89 86 88 84 79 77 82 87 89 75 59 47 31 20 17 15 10 7 6 5 5 4 4 4 3 3 3 3 3 3 3 3 3 3 4 4
71 64 69 76 86 93 95 97 97 98 97 97 99 99 97 95 93 97 94 97 99 100 99 97 96 91 72 48 35 24 17 14 10 7 6 5 4 4 3 3 3 3 4 4 4 4 4 4 3 3 3 3 3 3
90 85 82 81 85 94 99 100 100 100 100 100 99 97 94 99 100 100 100 100 100 95 91 88 79 59 35 27 18 14 10 7 6 5 4 4 4 4 4 4 4 4 4 3 3 3 3 3 3 3 3 2 2 2
76 77 79 80 80 84 88 93 97 100 100 99 100 100 100 100 100 100 100 95 91 88 81 65 43 28 23 15 12 8 6 5 4 4 4 4 4 4 4 4 3 3 3 3 3 3 2 2 2 2 2 2 2 2
90 90 93 95 93 92 95 98 100 100 100 100 100 100 100 100 100 100 93 85 80 72 57 42 26 18 14 11 7 5 4 4 4 4 4 4 4 4 3 3 3 3 2 2 2 2 2 2 2 2 2 2 2 2
100 100 99 97 97 98 96 92 96 98 96 98 100 100 100 99 95 88 78 72 64 52 35 20 15 12 8 6 5 5 5 5 4 4 4 4 4 3 3 2 2 2 2 2 2 2 2 2 2 2 2 2 2 2
95 92 90 90 92 94 93 94 95 96 99 100 99 100 100 94 81 71 65 53 38 24 16 12 10 7 5 5 5 5 5 4 4 3 3 3 3 2 2 2 2 2 2 2 2 2 2 2 2 2 1 1 1 1
91 91 89 92 96 98 96 97 100 100 100 98 90 85 79 71 62 55 40 28 20 14 10 8 6 6 5 5 4 4 4 4 3 3 3 2 2 2 2 2 2 2 2 2 2 2 2 1 1 1 1 1 1 1
90 93 93 90 83 82 87 89 91 86 78 73 70 65 58 49 38 31 24 18 11 8 7 6 6 5 4 4 4 4 4 3 3 2 3 2 2 2 2 2 2 2 2 2 2 1 1 1 1 1 1 2 2 2

GFSWCAN_250_rhum_072.txt.gz
RH
7 7 7 7 7 7 7 7 8 9 10 11 11 12 11 11 11 11 9 8 8 7 5 5 5 5 6 8 9 11 13 16 18 18 17 21 27 36 46 54 67 70 73 72 71 69 71 72 76 86 91 96 91 84
8 10 10 10 10 9 9 9 9 8 8 9 9 10 13 13 12 12 10 9 9 8 7 7 6 6 7 7 9 10 12 14 17 21 22 22 24 25 26 33 38 42 47 45 45 49 52 56 60 70 75 76 74 79
10 11 12 11 10 9 8 8 8 8 10 12 12 13 17 19 15 12 13 11 12 10 9 9 8 7 8 9 9 10 11 13 16 19 20 24 26 25 28 30 30 33 34 38 37 40 38 35 35 36 41 45 45 42
14 12 10 9 8 8 8 9 9 9 9 10 12 13 18 24 23 13 13 12 14 13 11 10 10 11 10 11 11 12 12 12 15 18 21 24 29 28 31 34 36 35 35 36 36 39 33 28 29 31 32 34 35 35
11 8 7 6 5 4 4 4 4 4 5 6 7 10 12 22 31 20 13 12 14 16 12 12 11 11 12 13 14 14 14 15 16 20 23 25 27 27 28 31 34 34 35 34 35 35 32 28 26 29 26 24 25 25
6 5 5 6 5 5 5 5 4 4 4 4 4 6 8 15 28 29 20 13 15 17 15 14 13 13 14 14 14 14 14 14 15 18 21 24 27 29 31 32 32 32 30 30 29 30 28 26 21 18 18 18 18 18
6 7 7 6 5 5 5 5 5 5 4 4 3 4 6 10 23 38 46 29 17 17 18 17 17 18 17 16 16 15 15 16 16 18 22 26 27 27 31 31 31 30 28 27 28 25 22 22 23 20 17 16 15 15
6 6 5 4 4 4 4 5 5 6 6 5 4 4 4 7 13 31 37 30 24 16 15 16 18 18 20 21 20 18 19 20 19 18 21 27 27 26 33 35 34 31 30 29 28 27 27 27 28 26 21 17 14 12
6 6 5 4 4 3 4 4 4 5 6 6 6 4 4 4 7 16 28 28 24 24 22 18 18 19 20 19 20 21 20 21 20 22 24 23 26 28 33 34 35 30 28 26 25 25 24 24 21 20 18 18 17 21
5 4 4 4 3 3 3 3 3 4 5 6 6 6 5 5 5 6 13 23 21 28 35 26 24 26 29 31 28 24 24 25 24 23 22 24 26 32 37 41 44 45 36 28 26 30 30 29 21 16 11 13 18 15
5 4 4 4 3 3 3 3 3 3 4 4 5 6 7 7 6 5 6 8 14 22 34 42 41 41 39 40 37 40 36 35 32 30 27 26 27 28 29 34 40 40 38 35 32 28 26 24 20 16 12 12 11 10
5 4 4 4 3 3 3 4 3 4 4 4 4 5 8 9 9 9 9 9 9 10 18 26 40 52 58 58 47 34 28 25 24 21 15 16 14 10 10 12 13 15 17 18 18 18 16 14 13 12 10 9 9 10
6 5 4 4 4 3 4 4 4 4 4 4 4 5 6 8 8 10 9 8 9 11 13 15 17 20 24 29 28 25 24 20 15 14 14 13 14 14 12 11 8 8 7 6 7 7 8 7 7 7 8 9 9 10
8 6 6 5 4 4 4 4 4 4 4 4 4 4 5 6 6 8 9 10 11 10 11 12 13 14 15 15 14 13 14 13 13 13 12 11 10 9 9 8 8 8 8 8 8 8 7 7 7 8 9 10 12 12
11 8 7 6 6 5 5 5 5 5 4 5 5 5 6 6 7 8 9 10 11 12 12 13 13 13 13 14 15 15 14 14 13 12 10 10 9 9 9 9 8 9 9 10 10 10 10 10 10 11 12 13 16 16
16 11 9 8 7 6 6 6 6 6 6 6 7 7 7 8 8 9 10 12 14 15 16 17 17 17 16 17 17 16 15 14 13 16 16 16 15 14 12 14 14 15 16 15 14 14 16 18 19 19 18 19 19 19
20 17 12 10 9 8 7 7 7 8 8 8 9 9 10 10 10 10 11 13 14 18 20 22 24 26 29 31 36 35 37 31 37 34 29 28 30 29 29 26 22 19 20 21 23 23 22 23 21 18 18 17 17 18
20 20 19 16 14 14 13 12 11 11 12 12 13 14 15 16 17 20 24 29 34 38 43 48 49 50 56 55 55 57 54 51 54 54 54 53 54 52 48 43 40 40 39 39 38 36 37 35 35 37 36 35 34 32
22 25 27 25 22 20 20 22 24 26 27 30 30 34 39 46 50 53 56 61 68 72 70 70 73 79 80 75 69 63 55 55 58 62 63 59 55 49 44 40 36 34 32 32 32 31 30 28 28 28 28 27 25 23
26 28 33 35 34 34 38 43 48 50 56 64 71 69 66 61 56 62 70 77 82 86 83 84 85 87 85 81 77 76 76 74 68 60 53 49 45 40 37 35 35 36 38 38 37 36 35 33 30 26 23 20 18 17
29 32 41 46 47 39 44 65 78 79 75 62 60 60 68 89 94 96 93 92 86 89 88 88 91 98 96 94 90 88 83 76 69 61 54 46 38 33 34 35 34 32 31 29 25 22 20 16 13 12 11 10 10 10
42 46 46 44 51 64 64 63 56 65 73 87 97 92 86 92 97 96 99 100 99 96 94 94 95 95 92 88 80 69 60 54 46 40 40 38 35 32 27 23 19 16 14 12 11 10 9 8 7 6 6 6 5 5
50 48 56 70 76 71 68 74 70 75 84 84 82 84 88 88 86 78 86 92 95 89 76 72 70 67 61 55 49 42 42 36 30 27 24 20 16 13 10 9 8 7 6 6 6 5 5 5 5 5 4 4 4 4
89 77 66 63 81 87 77 74 73 76 80 82 82 83 79 83 87 86 78 75 65 68 70 69 64 61 60 54 41 40 30 26 22 19 14 10 7 6 6 5 5 4 4 4 4 3 3 3 3 3 3 3 3 3
92 80 76 70 77 77 78 78 77 76 76 79 80 80 82 78 76 73 73 81 82 76 76 82 86 85 75 61 50 39 23 19 13 8 7 6 5 4 4 3 3 3 3 3 3 3 3 3 3 3 3 3 3 3
64 74 80 79 80 79 78 79 82 86 86 86 87 88 83 84 88 94 95 96 95 97 98 96 93 89 67 49 37 18 15 11 7 6 5 5 4 4 3 3 3 3 3 3 4 3 3 3 3 3 3 3 3 3
76 74 76 78 82 88 91 96 100 100 100 98 97 96 97 99 98 99 100 99 98 95 92 87 79 65 44 30 18 16 10 7 5 5 5 4 4 4 4 4 3 3 3 3 3 3 2 2 2 2 2 2 2 2
76 78 85 91 96 100 100 100 100 99 94 90 92 97 99 99 99 99 97 92 90 90 87 73 57 40 26 18 14 8 5 5 5 5 5 4 4 4 4 3 3 3 2 2 2 2 2 2 2 2 2 2 2 2
100 99 100 100 100 99 97 96 97 96 91 94 100 100 100 98 94 94 92 92 90 80 72 54 36 21 15 11 7 5 5 5 4 4 4 4 4 3 3 2 2 2 2 2 2 2 2 2 2 2 2 2 2 2
97 97 96 96 95 96 96 93 92 92 91 92 96 96 94 97 92 86 88 83 73 63 41 26 17 13 9 7 5 5 4 4 4 4 4 3 3 2 2 2 2 2 2 2 2 2 2 2 2 2 2 2 2 1
100 100 96 92 91 91 91 90 90 89 91 95 96 97 93 90 86 79 73 61 46 30 21 15 11 8 6 5 5 4 4 4 4 3 3 2 2 2 2 2 2 2 2 2 2 2 2 2 2 2 1 1 1 1
92 87 85 86 87 87 87 86 87 88 92 89 81 79 80 79 72 61 45 33 24 18 13 10 7 6 5 4 4 4 4 4 3 3 2 2 2 2 2 2 2 2 2 2 2 2 2 2 2 2 2 2 2 2
88 84 85 86 81 80 84 83 80 76 71 67 63 64 62 50 40 32 26 19 14 10 8 6 6 5 4 4 4 4 3 3 2 2 2 2 2 2 2 2 2 2 2 2 2 2 2 2 2 2 2 2 2 2

GFSWCAN_250_rhum_075.txt.gz
RH
8 9 9 9 8 8 8 8 8 8 9 9 9 9 9 10 11 10 11 11 10 7 7 6 6 6 6 6 5 6 6 7 10 14 18 23 18 30 43 58 71 91 90 83 92 98 100 100 91 80 86 80 79 82
10 10 10 11 11 11 11 11 10 10 10 10 11 12 14 15 14 13 11 11 10 8 8 7 7 7 6 6 5 5 6 6 9 14 19 24 20 20 33 49 62 77 89 93 85 86 89 86 83 88 86 82 84 84
11 13 13 12 11 12 12 12 12 12 13 13 14 16 18 18 17 16 14 11 10 9 9 7 6 6 5 5 6 6 6 7 11 15 18 23 25 19 22 36 50 77 82 93 79 88 88 97 86 82 85 87 89 82
12 11 11 13 14 14 14 13 13 13 12 11 12 13 16 20 20 18 16 14 11 11 8 9 8 7 6 6 6 6 6 8 11 15 18 21 26 25 20 22 33 49 62 71 72 67 71 74 76 79 69 68 64 58
10 12 12 11 10 9 8 9 9 10 11 13 15 18 21 24 26 21 15 16 13 11 12 10 9 8 7 7 7 7 8 10 13 14 18 22 25 26 25 24 26 34 43 50 54 56 67 53 53 56 49 43 43 39
12 11 8 5 5 5 4 4 4 4 5 8 10 13 18 25 33 24 18 20 17 15 14 13 12 11 9 8 8 8 9 10 13 17 19 22 24 25 28 30 28 27 30 32 31 34 30 30 34 39 36 35 36 36
8 5 6 7 6 6 5 5 5 4 4 4 5 7 11 16 26 32 32 23 16 15 14 16 15 13 12 11 11 12 13 14 16 18 20 22 24 26 28 30 31 33 34 34 37 36 33 35 35 36 36 35 33 31
7 7 6 5 5 5 5 6 6 6 6 6 5 4 6 11 19 27 22 19 22 16 15 18 18 17 15 14 14 15 15 15 18 19 21 22 21 24 27 30 33 34 34 36 36 34 33 33 33 32 30 28 27 25
8 7 5 5 4 4 4 4 5 6 6 6 6 6 5 7 13 22 19 19 25 22 18 18 19 19 20 19 19 18 18 19 20 21 21 23 25 27 28 26 27 26 27 29 30 29 29 28 27 27 26 23 19 16
7 6 5 4 4 4 4 4 4 6 6 6 7 6 5 6 13 16 15 14 15 25 24 22 23 24 22 22 21 20 21 21 22 22 21 23 27 29 26 25 23 22 21 22 22 22 20 19 18 18 18 19 20 20
6 5 4 4 4 4 4 4 4 5 6 8 8 7 6 6 10 13 12 16 22 36 33 34 31 28 25 26 26 25 25 25 24 26 24 25 26 24 24 23 22 20 20 21 20 20 21 22 22 21 19 18 16 16
5 5 4 4 4 4 4 4 4 4 5 7 8 8 7 6 8 12 16 21 21 31 38 40 44 42 40 37 37 40 40 36 34 32 28 37 34 20 22 24 24 23 21 18 17 16 16 15 15 15 15 14 12 14
5 5 4 4 4 4 4 4 4 4 5 6 8 9 8 8 10 12 16 22 28 34 40 40 38 38 37 37 39 40 38 34 29 28 24 28 25 24 24 26 27 29 29 27 23 20 16 13 11 11 15 16 16 14
5 5 5 4 4 4 4 4 4 4 5 5 6 8 8 8 8 10 15 21 26 34 45 49 52 53 48 52 41 30 21 15 12 12 10 11 12 11 11 10 9 9 10 11 13 13 14 14 13 11 9 8 8 8
5 5 5 4 4 4 4 4 4 5 5 5 6 8 9 10 9 9 10 14 21 27 34 43 46 45 36 30 28 25 23 24 23 21 17 15 13 12 12 10 9 8 8 8 8 7 7 7 7 7 7 6 6 7
6 6 6 6 5 5 5 5 5 5 5 6 6 7 8 10 11 12 12 13 13 15 16 17 19 21 23 23 23 23 23 22 21 20 19 19 18 17 14 12 12 11 10 10 10 9 9 8 8 8 9 10 10 10
8 7 6 7 6 6 6 7 7 7 7 7 7 8 9 9 10 11 12 14 16 18 19 22 23 23 22 21 21 23 23 26 30 30 26 26 24 20 19 18 16 14 13 13 13 13 12 13 13 13 13 13 13 13
9 8 7 8 8 8 8 7 8 8 9 10 10 10 11 12 13 14 15 16 18 20 23 23 26 27 33 38 50 54 60 61 58 54 50 48 44 37 31 26 25 24 25 25 24 24 23 24 24 24 23 22 22 22
13 12 11 11 10 10 10 10 10 11 11 12 12 13 14 16 19 25 34 44 60 70 69 73 75 82 80 73 72 73 74 75 71 65 62 58 57 54 51 46 42 40 39 40 38 38 36 34 33 32 30 29 28 25
19 18 16 16 16 15 18 20 23 27 33 38 42 51 57 63 75 82 87 97 100 96 90 86 84 82 81 85 87 83 79 73 66 60 56 54 51 50 49 47 46 43 41 39 36 33 31 28 25 22 20 18 16 15
29 29 33 39 49 48 54 61 67 72 75 74 80 81 79 85 86 86 82 80 77 80 89 96 91 85 88 89 84 82 78 73 68 59 52 53 51 45 39 34 29 24 19 16 14 13 11 10 9 8 8 7 7 7
48 51 60 64 73 80 80 81 85 86 85 75 76 90 92 90 93 99 100 99 98 96 94 95 94 84 74 68 62 60 57 57 53 47 38 34 27 23 20 16 14 12 10 9 8 7 6 6 6 5 5 5 5 5
46 49 66 81 89 77 63 60 64 72 82 87 94 92 93 92 88 90 85 88 91 83 70 70 75 73 70 65 56 50 47 40 34 26 20 16 14 11 10 9 8 7 6 6 6 5 5 5 4 4 4 4 4 4
63 85 83 73 69 73 78 76 80 84 84 84 86 86 86 88 87 84 83 81 72 70 77 81 74 65 60 56 51 45 36 30 20 16 12 9 8 7 6 5 5 4 4 3 3 3 3 3 3 3 3 3 3 3
89 86 78 74 80 78 82 82 85 86 85 90 91 88 86 80 78 73 71 75 80 85 87 79 76 77 74 64 49 37 28 19 14 9 7 6 5 4 4 4 4 3 3 3 3 3 4 3 3 3 3 3 3 3
97 84 78 76 78 84 89 92 92 93 92 96 99 91 79 76 76 83 85 87 92 98 98 93 90 82 71 51 36 24 16 10 7 5 5 5 4 4 4 4 4 4 4 4 3 3 3 3 3 3 3 3 3 3
99 90 80 85 88 90 92 93 92 93 94 90 86 85 88 96 97 91 92 96 97 92 87 82 74 69 50 30 20 14 9 6 5 5 5 4 4 4 4 4 4 3 3 3 3 2 2 2 2 2 2 2 2 2
85 85 90 94 97 96 95 96 97 98 97 94 94 94 94 96 94 97 98 94 90 86 82 74 63 40 24 18 13 9 6 5 5 5 4 4 4 4 4 3 3 2 2 2 2 2 2 2 2 2 2 2 2 2
92 91 90 90 91 91 93 96 98 99 99 100 97 95 94 100 98 97 94 91 85 84 78 58 33 22 18 13 8 6 5 5 4 4 4 4 4 3 2 2 2 2 2 2 2 2 2 2 2 2 2 2 2 2
92 87 87 91 92 93 94 99 99 100 96 93 94 97 98 98 94 92 91 87 83 66 46 30 21 17 12 8 6 5 5 4 4 4 4 3 3 2 2 2 2 2 2 2 2 2 2 2 2 2 2 2 2 2
84 88 89 90 95 99 100 98 94 92 92 94 93 92 96 98 91 88 78 66 49 36 25 19 15 10 8 7 6 5 4 4 3 3 3 2 2 2 2 2 2 2 2 2 2 2 2 2 2 2 2 2 2 2
97 99 99 98 93 91 89 88 91 90 89 86 83 82 85 83 73 64 49 37 28 20 16 12 9 7 6 5 4 4 4 3 3 3 2 2 2 2 2 2 1 1 1 2 2 2 2 2 2 2 2 2 2 2
96 92 89 88 85 85 88 88 84 79 75 69 65 70 65 55 52 43 28 21 16 12 9 7 6 6 5 4 4 4 3 3 2 2 2 2 2 2 2 2 1 1 1 2 2 2 2 2 2 2 1 1 1 1

GFSWCAN_250_rhum_078.txt.gz
RH
12 12 11 10 10 10 10 10 10 9 9 9 9 9 10 10 10 10 11 10 8 10 10 9 8 8 8 8 8 8 7 7 8 8 10 13 15 20 20 20 34 70 85 85 80 72 87 100 100 100 100 95 92 94
11 11 11 10 11 11 11 12 12 11 10 11 11 11 11 11 10 10 11 10 9 11 12 10 9 8 8 7 7 7 8 6 7 7 8 10 13 17 23 20 24 52 75 86 91 94 95 85 100 100 99 78 84 78
10 10 10 10 12 14 15 15 15 16 16 13 13 13 14 14 13 11 10 13 10 12 11 9 9 8 8 8 7 6 6 6 7 8 8 10 12 16 22 25 21 29 55 80 98 98 96 100 96 91 94 98 89 77
10 10 10 12 13 13 13 14 16 18 18 18 20 19 18 19 19 15 12 15 12 12 11 12 10 8 8 8 7 6 6 6 7 8 8 8 11 14 18 23 25 24 46 63 89 96 86 91 76 89 95 72 98 100
10 10 10 11 10 12 15 18 20 21 23 25 24 20 20 22 22 19 13 16 18 14 13 12 9 9 8 8 7 6 6 6 8 9 10 13 15 16 20 25 30 24 28 44 73 85 76 84 98 82 96 83 84 86
9 9 8 10 13 14 11 11 11 11 12 14 17 22 24 21 21 19 13 29 21 15 14 15 13 11 9 8 8 6 6 8 10 9 10 14 17 19 22 26 30 30 30 35 55 78 65 64 83 82 77 73 74 74
8 9 11 9 8 7 6 5 5 6 7 7 10 13 18 26 27 30 24 16 24 19 16 17 14 12 11 9 8 7 8 10 11 13 15 17 20 23 25 27 31 35 32 27 30 35 47 54 73 77 76 71 68 68
10 9 8 7 6 6 6 7 7 7 6 6 6 8 12 19 31 34 19 25 33 22 18 20 16 13 12 11 10 9 10 12 14 15 18 19 20 23 27 32 33 35 34 34 29 26 27 29 37 49 50 52 53 48
8 9 7 6 5 5 6 6 6 6 6 7 7 6 8 15 24 29 14 26 35 30 20 18 17 16 15 14 14 13 14 16 16 17 17 20 21 26 27 28 29 29 29 30 29 32 31 28 28 27 29 29 30 29
9 6 6 5 5 4 4 4 5 6 7 7 8 8 7 8 14 13 11 18 40 34 25 22 21 20 19 17 18 17 18 20 20 19 21 24 23 22 22 21 22 22 24 25 26 28 28 29 30 31 31 31 31 30
8 6 5 4 4 4 4 4 5 6 7 8 9 9 9 7 7 6 10 18 40 45 34 25 22 24 25 24 24 23 22 22 23 23 23 24 24 23 21 20 18 18 18 19 21 22 22 23 24 25 25 25 24 23
6 5 5 4 4 4 4 4 5 6 7 8 8 8 9 7 6 7 10 22 42 50 45 37 33 29 31 31 30 29 28 27 29 26 26 30 26 23 22 21 20 20 19 19 19 20 20 20 21 21 21 20 19 18
5 5 5 5 4 4 4 4 5 6 7 8 9 9 9 8 7 8 17 26 41 47 47 47 44 37 39 39 41 44 40 38 36 34 32 30 22 22 24 24 25 24 23 21 19 18 18 17 17 17 17 16 16 15
5 5 5 5 5 5 5 5 5 6 8 10 11 10 8 7 7 11 19 21 23 31 42 44 52 56 58 62 58 52 48 46 46 42 44 47 43 41 39 37 33 32 31 28 27 25 23 21 19 18 16 14 13 12
5 6 6 6 5 5 5 6 6 6 8 10 11 9 8 7 8 10 13 19 22 26 35 41 41 44 48 42 38 33 30 33 30 26 24 21 20 19 18 17 17 17 17 16 16 15 14 14 12 11 11 10 10 9
6 6 6 5 5 5 5 6 6 6 8 10 11 11 10 9 8 9 12 17 23 30 40 49 55 61 60 52 40 32 29 27 26 24 22 20 18 16 15 14 13 12 11 11 11 10 9 8 8 8 8 8 8 7
6 6 6 6 5 5 5 6 7 7 9 10 11 12 11 11 11 10 12 15 19 31 44 48 54 53 48 46 39 34 32 29 28 26 24 22 21 23 30 32 31 28 27 26 24 22 20 20 18 16 14 13 12 12
6 7 7 6 6 6 7 7 8 8 9 10 11 13 14 14 15 16 17 20 26 32 38 42 39 38 35 37 36 39 41 43 51 57 65 69 67 64 64 64 61 58 54 50 47 44 42 39 36 32 29 27 25 23
7 8 9 8 8 9 9 10 10 10 10 11 12 13 14 16 17 18 21 25 30 36 42 45 45 47 56 64 73 83 90 92 88 88 86 80 77 73 67 61 56 52 47 42 39 35 30 27 24 22 20 18 16 15
10 10 10 10 10 11 12 12 13 14 14 15 15 17 19 21 21 24 30 38 47 60 72 81 87 94 95 94 94 96 96 92 88 81 75 70 66 60 52 46 42 37 32 26 21 18 16 14 13 12 11 10 10 9
15 16 17 17 17 16 15 19 26 32 35 38 41 45 53 66 75 83 91 100 99 100 98 97 96 98 97 96 95 96 95 87 79 74 70 63 54 46 39 34 28 24 20 16 13 10 8 7 6 6 6 6 6 6
25 30 35 40 47 52 55 63 70 75 75 79 82 84 83 85 88 92 96 98 98 100 100 100 99 96 89 82 76 69 65 60 55 50 45 40 33 26 21 17 14 12 10 9 8 7 6 5 5 5 4 4 4 4
41 46 55 63 66 70 76 76 69 69 74 76 82 87 89 92 92 94 97 97 95 90 79 82 80 73 70 70 69 64 53 48 39 30 25 20 15 12 10 10 9 8 7 6 5 4 4 4 4 3 3 3 3 3
60 84 78 73 70 68 69 75 82 87 94 95 95 95 93 90 88 87 84 85 75 79 78 76 77 74 70 67 59 48 44 37 26 19 14 11 9 8 6 6 5 4 4 4 4 4 4 4 4 4 4 4 4 4
79 75 71 75 81 86 88 95 100 100 96 92 90 86 80 78 78 79 80 84 90 91 84 83 77 75 71 58 52 43 35 20 13 10 8 7 6 5 5 4 4 4 4 4 4 4 4 4 3 3 3 3 3 3
85 84 84 86 82 89 88 92 95 98 94 90 89 88 90 91 88 91 93 90 90 87 86 84 84 79 68 55 42 29 18 13 10 6 5 5 4 4 4 4 4 4 4 4 3 3 3 3 2 2 2 2 2 2
92 89 89 90 91 90 88 89 95 98 98 96 93 93 97 99 99 100 96 93 93 90 90 88 85 74 54 37 27 19 13 9 6 5 5 4 4 4 4 4 4 3 3 3 2 2 2 2 2 2 2 2 2 2
97 97 97 94 88 88 88 92 93 94 96 97 96 96 96 98 99 100 100 96 94 92 89 85 75 54 35 27 19 13 8 6 6 5 4 4 4 3 3 3 3 2 2 2 2 2 2 2 2 2 2 2 2 2
100 94 89 88 89 88 88 91 95 99 100 99 100 99 100 100 100 100 99 96 93 90 82 66 49 33 26 18 12 8 6 6 5 4 4 3 3 3 3 2 2 2 2 2 2 2 2 2 2 2 2 2 2 2
91 86 88 86 86 90 96 100 100 100 100 100 100 100 100 100 99 97 96 95 88 74 58 44 32 23 16 12 8 6 6 5 4 4 3 3 3 2 2 2 2 2 2 2 2 2 2 2 2 2 2 2 2 2
91 85 83 87 94 100 100 100 100 100 100 100 99 96 94 99 93 93 89 77 61 51 40 29 19 14 12 8 7 6 5 4 4 4 3 3 2 2 2 2 2 2 2 2 1 1 2 2 2 2 2 2 2 2
84 85 92 98 100 100 100 100 100 100 100 99 97 95 90 85 82 72 63 55 43 32 23 19 14 11 8 7 6 5 4 4 4 3 3 2 2 2 2 2 2 2 2 2 2 2 2 2 2 2 1 1 1 1
97 96 96 97 100 100 100 100 100 100 100 99 93 82 77 71 59 54 48 37 28 21 17 12 10 8 6 6 5 4 4 3 3 3 2 2 2 2 2 2 2 2 1 1 1 2 1 1 1 1 1 1 1 2

GFSWCAN_250_rhum_084.txt.gz
RH
20 20 20 20 20 20 19 18 16 13 13 12 11 11 11 10 10 10 10 10 12 13 12 13 14 16 18 21 24 29 28 30 30 29 24 20 24 26 29 28 28 22 32 48 48 44 85 100 100 90 73 89 100 100
19 19 19 20 20 18 19 19 15 13 14 13 12 11 12 11 11 11 12 12 12 11 12 14 13 14 17 20 22 23 23 23 25 25 23 23 24 27 31 29 24 20 19 29 42 40 56 90 100 100 99 74 98 100
17 18 18 19 18 18 20 17 13 13 14 15 14 13 12 12 13 13 13 13 13 15 14 14 14 15 15 16 18 18 18 19 18 14 21 21 20 22 22 25 25 26 23 18 29 35 44 63 96 100 100 100 89 94
16 16 17 17 16 19 19 15 13 14 15 17 19 17 15 14 14 14 14 15 15 16 15 15 14 14 12 12 12 12 13 12 11 13 15 15 14 15 15 16 19 22 19 21 22 25 35 39 67 100 100 100 100 100
14 15 15 15 16 18 17 12 12 14 16 20 20 20 18 16 17 18 17 21 21 17 18 16 13 12 12 12 12 12 11 10 11 13 13 12 12 12 12 12 13 15 15 19 25 24 26 37 44 86 99 100 100 100
13 13 13 13 16 16 12 11 12 13 16 18 19 22 22 22 21 19 18 24 25 23 21 21 19 16 17 16 15 14 12 12 11 10 11 12 12 11 10 11 11 11 13 13 17 23 21 21 33 48 75 96 86 81
11 12 12 14 13 12 11 11 12 13 16 17 19 23 26 30 24 15 25 45 45 33 27 28 21 17 16 15 14 12 11 13 12 11 11 12 11 11 10 10 12 11 11 12 14 18 23 21 18 21 30 42 57 61
11 11 12 12 10 10 11 11 11 11 13 15 17 18 18 22 24 19 24 49 57 49 39 35 23 20 17 14 13 12 9 10 10 10 10 11 12 12 11 11 14 16 14 16 16 18 23 28 26 26 27 28 25 26
10 11 10 10 9 9 10 10 11 12 12 12 12 10 11 18 17 14 25 45 54 43 43 32 27 21 17 14 13 11 10 11 10 9 10 11 14 13 11 11 13 15 16 16 16 18 24 29 30 30 28 28 29 28
10 10 9 8 9 10 9 8 8 8 8 8 8 9 11 14 13 14 26 65 62 58 47 32 25 20 17 16 13 11 11 11 10 10 11 13 13 13 13 12 12 12 12 13 14 16 20 21 26 30 30 29 26 25
9 10 9 10 9 8 7 7 7 7 7 7 9 11 9 8 10 13 29 61 65 61 58 33 28 22 19 19 16 14 13 12 12 14 16 15 14 13 12 12 11 11 12 13 16 18 20 22 22 24 26 28 30 30
11 10 10 8 7 6 5 5 5 5 6 6 7 7 7 8 10 14 37 58 65 72 56 35 30 25 25 22 19 18 19 18 16 16 16 14 13 14 18 23 25 25 24 23 23 23 23 24 26 26 26 27 28 28
10 8 7 6 5 5 5 5 5 5 6 7 7 8 9 9 10 20 56 72 64 55 49 36 33 31 31 27 24 22 20 22 25 23 20 22 27 24 23 22 22 22 21 20 20 20 20 20 20 20 20 20 20 20
7 6 6 6 5 5 5 5 6 6 7 9 10 11 12 12 12 31 44 35 44 67 52 40 37 40 39 37 36 35 31 29 27 32 36 32 30 29 26 24 24 22 20 19 19 19 19 19 20 19 19 19 19 19
6 6 6 5 5 5 5 5 6 7 8 9 10 11 11 11 14 29 31 40 58 67 62 64 51 52 44 41 44 41 42 43 42 46 50 48 42 38 34 31 32 33 36 36 34 32 28 25 23 22 21 20 20 20
6 6 5 5 5 5 5 6 7 8 10 10 11 12 12 11 15 31 43 44 59 73 68 64 74 83 88 78 73 71 72 66 62 57 52 51 47 43 39 38 36 32 30 27 24 21 18 17 15 14 13 12 11 10
5 5 5 5 6 6 6 7 8 10 11 12 11 12 12 11 16 36 39 46 68 82 87 93 93 89 70 63 62 50 43 36 36 36 35 31 29 28 33 32 30 29 26 25 25 24 23 20 19 17 14 14 14 13
5 5 6 6 6 7 8 10 11 12 12 11 11 10 10 11 18 28 44 61 85 97 94 83 72 63 51 39 42 52 45 50 58 64 67 64 61 59 56 55 52 49 46 41 36 31 28 26 25 23 21 19 18 16
5 5 6 6 7 8 10 11 11 10 10 10 10 11 11 20 30 39 53 69 88 81 75 73 54 48 51 53 62 69 73 83 86 88 84 77 72 67 62 56 49 43 40 36 32 28 25 22 20 18 15 13 11 11
6 6 7 7 9 10 11 11 10 10 11 11 11 16 20 31 48 64 74 70 68 65 52 52 55 64 74 88 95 97 95 91 87 83 80 74 69 66 61 52 45 39 32 26 21 18 14 11 8 7 7 6 6 5
7 8 9 10 11 12 12 12 13 12 12 13 14 16 20 26 37 43 51 48 46 53 64 83 94 100 99 98 94 93 95 95 92 82 75 67 55 44 38 32 25 20 16 13 10 9 8 6 5 4 4 4 4 4
10 10 11 12 12 12 13 15 16 17 18 19 22 23 29 34 38 44 58 72 87 98 100 100 100 98 99 99 97 92 84 75 70 61 45 34 25 20 16 14 12 11 9 8 6 5 4 4 4 4 4 4 4 4
13 13 14 15 17 19 24 26 27 30 36 41 47 55 64 74 86 95 92 94 97 99 98 98 98 96 94 89 88 87 80 69 55 44 31 23 16 12 10 8 7 6 5 5 4 4 4 4 3 3 3 3 3 3
25 32 39 45 47 51 54 57 59 62 65 71 75 79 80 81 85 91 94 92 91 96 98 96 90 88 89 85 87 84 74 59 42 27 20 13 9 7 6 6 5 5 4 4 4 4 3 3 3 3 3 3 2 2
46 49 54 60 66 66 69 74 80 81 80 84 85 90 98 99 100 100 97 96 96 96 93 94 94 95 98 99 93 73 53 39 27 20 12 9 6 6 5 4 4 4 4 3 3 3 3 2 2 2 2 2 2 2
55 61 66 67 71 73 76 81 84 91 98 100 99 99 98 98 94 93 93 91 89 90 92 97 100 100 99 88 75 56 43 28 20 14 10 8 6 5 4 3 3 3 3 3 2 2 2 2 2 2 2 2 2 2
66 70 73 75 79 83 88 93 94 93 93 97 94 93 92 91 96 99 98 97 99 97 99 100 100 90 80 69 60 44 31 21 14 9 8 6 5 4 4 3 3 3 3 2 2 2 2 2 2 2 2 2 2 1
79 84 88 94 98 99 97 94 93 91 90 95 96 100 100 100 100 100 100 100 100 100 100 95 84 75 69 58 43 31 22 14 9 7 6 5 4 4 4 3 3 2 2 2 2 2 2 2 2 2 1 1 1 1
87 89 91 92 91 92 92 92 94 95 97 99 100 100 100 100 100 100 100 100 100 95 92 79 70 61 53 39 28 20 14 10 8 6 5 4 4 3 3 3 2 2 2 2 2 2 2 2 2 2 1 1 1 1
90 89 88 88 90 90 92 94 95 94 96 98 97 97 99 100 100 100 98 95 93 89 76 67 57 46 36 25 18 14 10 8 6 5 4 4 3 3 3 2 2 2 2 2 2 2 2 2 2 2 1 1 1 1
88 86 85 89 92 91 91 91 93 93 91 92 94 98 98 95 90 90 89 86 81 75 67 55 44 33 21 16 14 11 9 7 6 5 5 4 3 3 2 2 2 2 2 2 2 2 2 2 2 2 1 1 1 1
96 89 86 92 96 96 92 95 96 98 99 99 100 98 94 93 89 86 82 77 75 63 53 43 29 19 15 12 10 8 6 5 5 5 4 4 3 2 2 2 2 2 2 2 2 2 2 2 2 2 1 1 1 1
93 84 85 96 98 99 96 92 98 100 100 100 100 97 98 91 82 85 77 72 60 50 40 29 21 16 12 10 8 7 6 6 5 4 4 3 2 2 2 2 2 2 2 2 2 2 2 2 2 2 1 1 1 1

GFSWCAN_250_rhum_087.txt.gz
RH
18 18 19 19 20 21 22 21 21 25 21 18 15 14 13 12 11 10 9 11 12 12 11 13 15 16 17 20 24 27 28 30 31 30 33 33 32 38 40 36 34 45 57 65 61 56 69 90 58 61 64 99 100 100
17 18 18 18 20 21 20 21 21 25 21 18 14 15 15 14 13 12 12 12 12 10 12 12 15 16 17 21 24 26 27 28 28 27 25 24 26 30 34 29 32 36 45 44 53 57 65 68 55 76 64 76 99 100
11 11 13 16 18 19 19 20 24 23 21 18 15 16 16 16 15 13 12 13 14 14 14 14 16 15 15 18 22 24 24 25 27 27 26 25 26 28 29 26 28 31 24 28 36 45 51 56 49 56 81 66 82 95
8 8 10 12 14 16 18 20 24 21 21 16 15 16 20 22 17 15 15 16 16 16 16 15 14 16 18 18 18 19 20 20 20 22 28 26 32 34 33 32 37 32 24 19 15 25 41 48 50 50 64 91 74 71
7 8 8 9 10 14 17 21 22 20 20 15 15 16 25 29 21 17 16 16 15 15 17 16 16 16 16 16 16 16 16 17 18 18 22 27 26 25 26 27 31 26 25 22 21 22 23 31 40 46 51 78 100 95
6 7 8 8 9 13 17 20 20 20 16 14 15 16 27 33 29 20 17 20 18 16 18 16 15 15 15 14 14 13 12 14 14 15 16 16 16 16 17 18 18 15 19 16 17 21 25 23 22 32 40 45 66 81
6 6 7 7 10 14 17 18 19 16 14 13 14 16 22 26 31 31 26 26 22 21 21 23 20 17 15 15 13 12 12 12 11 11 12 11 11 13 12 11 11 12 12 12 13 14 17 21 21 20 24 30 33 49
6 6 7 9 12 15 16 18 16 12 12 12 13 16 18 22 34 43 37 34 36 34 35 35 24 20 17 15 14 14 15 16 14 12 13 13 12 12 12 10 12 12 12 12 13 13 13 14 18 25 25 21 24 30
6 7 8 11 13 14 14 14 12 10 10 11 12 14 18 24 25 34 48 54 51 45 49 37 25 22 18 17 15 15 14 13 12 12 12 13 14 15 13 14 15 15 16 15 14 14 14 15 17 21 28 33 30 25
6 8 11 12 12 10 10 9 9 9 9 10 12 14 21 22 18 32 44 76 64 63 55 36 33 27 19 17 16 14 13 13 13 12 13 14 13 12 13 15 15 14 12 12 12 12 12 13 14 16 20 25 29 32
8 10 10 9 8 7 8 8 9 10 10 10 14 18 18 13 11 23 40 57 64 68 60 48 40 28 22 18 14 13 12 12 11 11 11 11 10 10 10 11 12 12 11 11 12 12 12 13 15 17 17 18 21 24
9 9 8 6 8 9 9 9 9 9 9 10 14 13 10 9 12 24 36 55 71 82 62 49 31 25 20 16 15 13 13 14 13 14 14 12 15 19 21 21 21 22 25 28 29 26 22 19 17 16 18 19 20 20
8 6 8 10 9 8 7 6 6 6 7 7 7 7 8 11 18 26 42 56 70 49 51 49 30 28 20 17 18 18 18 17 17 16 19 24 22 19 17 16 17 17 17 18 20 20 19 18 17 16 15 16 16 17
8 9 9 7 7 6 5 5 5 6 6 7 8 10 13 15 18 20 24 33 35 51 61 44 33 30 27 27 29 26 23 23 25 24 24 23 26 28 28 27 25 23 22 21 21 21 21 21 21 21 21 20 19 18
8 7 7 6 5 5 5 5 5 5 7 8 10 10 10 12 12 12 20 35 50 60 57 41 36 35 36 35 33 33 33 32 31 35 37 36 35 36 33 33 38 40 36 31 28 26 23 21 20 19 19 19 18 18
6 6 6 5 5 5 5 6 6 7 8 9 10 10 12 10 11 19 27 40 51 64 57 37 38 51 51 54 49 51 55 55 55 62 68 74 78 79 79 71 62 55 50 44 41 35 32 27 25 22 20 19 17 16
6 6 5 6 6 6 6 7 8 9 10 11 11 12 11 13 19 29 37 48 56 54 53 56 62 71 78 86 97 95 97 88 76 67 58 54 49 45 46 47 45 38 37 37 35 32 29 27 24 22 20 18 16 14
6 6 6 6 7 7 9 10 10 10 11 12 13 12 12 14 24 40 46 66 79 73 72 71 83 95 99 100 90 73 57 53 56 56 55 62 68 69 66 62 56 50 45 40 36 33 31 28 25 22 20 18 16 16
6 6 6 7 8 9 11 11 11 11 12 13 12 12 14 23 46 54 65 88 87 78 83 92 93 91 77 58 59 64 75 89 90 86 79 75 74 71 67 62 56 49 43 36 30 24 19 16 14 12 10 9 8 7
6 6 7 9 10 11 11 11 10 11 13 13 12 14 21 40 62 64 69 80 89 89 85 87 71 66 72 86 95 97 94 89 91 90 89 84 73 65 54 43 35 28 23 18 15 12 10 8 7 6 6 6 5 4
7 7 9 10 11 11 10 10 10 10 12 15 15 19 36 50 61 68 74 79 75 84 71 70 79 93 93 96 96 97 94 89 82 74 71 64 51 38 29 24 20 16 12 10 9 8 6 5 5 4 4 4 3 3
9 9 10 11 11 10 9 9 9 9 11 20 36 53 56 57 60 70 76 79 73 71 89 94 95 97 95 91 94 93 87 85 80 71 54 42 29 22 15 11 10 8 7 6 5 5 4 4 4 4 4 4 3 3
10 10 11 12 12 12 12 11 14 16 22 26 36 50 59 68 78 80 73 73 84 92 97 98 91 88 92 96 95 91 80 74 70 58 41 26 20 15 11 9 7 6 5 5 5 4 4 3 3 3 3 3 3 3
11 12 14 15 17 18 17 22 26 32 38 49 56 61 67 72 70 74 82 94 96 94 93 92 96 96 96 96 93 88 84 79 72 60 42 25 17 12 8 6 5 4 4 4 4 3 3 3 3 3 2 2 2 2
20 24 29 35 41 45 49 52 55 58 63 66 69 75 82 90 94 97 94 92 89 93 96 98 95 94 99 100 98 94 85 81 70 41 25 14 10 7 6 5 4 4 3 3 3 3 3 2 2 2 2 2 2 2
36 42 47 49 54 59 68 76 79 84 84 86 89 96 97 94 90 89 87 89 96 100 99 98 100 100 100 95 96 92 75 57 37 24 15 10 7 5 4 4 3 3 3 3 3 2 2 2 2 2 2 2 2 2
55 59 68 79 80 78 79 82 88 89 90 91 92 91 86 83 86 92 99 99 100 97 100 100 100 98 95 91 80 64 50 34 24 16 11 8 6 5 4 4 3 3 3 2 2 2 2 2 2 2 2 2 2 2
78 83 86 88 91 92 88 86 88 88 86 84 80 80 85 95 100 100 100 100 100 100 99 94 91 86 83 77 65 49 34 23 15 11 8 7 6 5 4 4 3 3 2 2 2 2 2 2 2 2 2 2 2 2
78 80 82 81 82 82 87 92 85 83 86 90 95 100 100 100 100 100 100 98 95 92 94 93 87 78 73 64 50 36 23 16 11 8 7 6 6 5 4 4 3 3 2 2 2 2 2 2 2 2 2 2 2 2
83 83 82 82 84 85 84 85 89 92 93 97 100 100 100 100 98 97 94 94 91 93 89 84 83 76 69 48 40 23 16 11 8 8 7 6 5 4 4 3 2 2 2 2 2 2 2 2 2 2 2 2 2 2
86 82 85 86 81 79 83 88 90 93 96 98 100 100 100 96 94 94 93 90 88 86 86 86 77 64 47 38 22 14 10 8 7 6 6 5 4 4 3 2 2 2 2 2 2 2 2 2 2 2 2 2 2 2
91 88 88 92 90 84 86 89 92 93 95 98 99 100 100 100 99 97 89 86 84 87 84 74 58 46 37 26 17 11 9 7 7 6 5 4 4 3 3 2 2 2 2 2 2 2 2 2 2 2 2 2 2 2
93 90 93 100 94 87 88 91 94 97 100 100 100 100 100 100 97 97 85 82 82 79 72 56 44 33 27 16 10 8 7 6 6 5 4 4 3 3 2 2 2 2 2 2 2 2 2 2 2 2 2 2 2 2